{"data":{"norad_id":61640,"epoch":"2026-09-20T00:54:48.205152Z","epoch_age_seconds":231906,"freshness":"STALE","line1":"1 61640U 24191V   26263.03805793 -.00000598  00000+0 -12222-4 0  9994","line2":"2 61640  43.0034 136.5675 0001004 275.7512  84.3225 15.27573000107259","mean_motion":15.27573,"eccentricity":0.0001004,"inclination_deg":43.0034,"raan_deg":136.5675,"arg_perigee_deg":275.7512,"mean_anomaly_deg":84.3225,"bstar":-1.2222e-5,"rev_number":10725,"period_min":94.267180684655,"perigee_km":482.38119144945,"apogee_km":483.75892182642,"semimajor_km":6861.2070566379,"source":"CELESTRAK","updated_at":"2026-09-22T09:00:49.398745Z"}}